Regional Weather Roundup
Issued by NWS Wakefield, VA

Home | Current Version | Previous Version | Graphics & Text | Print | Product List | Glossary On
Versions: 1 2 3 4 5 6 7 8 9 10 11 12 13 14 15 16 17 18 19 20 21 22 23 24 25 26 27
000
ASUS41 KAKQ 051215
RWRAKQ

REGIONAL WEATHER ROUNDUP
NATIONAL WEATHER SERVICE WAKEFIELD VA
800 AM EDT THU MAY 05 2016

Note: "fair" indicates few or no clouds below 12,000 feet with no
significant weather and/or obstructions to visibility. * = Denotes
station may not report precipitation (e.g., rain,snow,etc.),
thunder or fog.

VAZ042-051-052>054-056-051300-
NORTHERN VIRGINIA

CITY           SKY/WX    TMP DP  RH WIND       PRES   REMARKS
WASH NATIONAL  DRIZZLE   51  49  92 NE9       29.67S FOG
DULLES         CLOUDY    51  47  86 NE9       29.67R FOG
FORT BELVOIR   CLOUDY    51  48  91 VRB1      29.67R
QUANTICO       CLOUDY    53  49  86 E16       29.67R
FREDERICKSBRG* CLOUDY    52  52 100 NE9       29.65R
STAFFORD*      CLOUDY    50  48  93 NE7       29.70R
WARRENTON      CLOUDY    51  46  82 NE7       29.66S
CULPEPER*      DRIZZLE   51  50  97 CALM      29.67R
MANASSAS*      NOT AVBL
LEESBURG*      CLOUDY    52  52 100 NE8       29.68S
WINCHESTER     CLOUDY    50  48  93 CALM      29.67S FOG
FRONT ROYAL*   CLOUDY    48  48 100 N5        29.66R
LURAY*         RAIN      50  50 100 N13       29.64S
$$

VAZ048-049-060>072-079>083-051300-
CENTRAL AND SOUTH CENTRAL VIRGINIA

CITY           SKY/WX    TMP DP  RH WIND       PRES   REMARKS
RICHMOND       DRIZZLE   52  50  93 NE12      29.62R
CHESTERFIELD*  CLOUDY    54  39  58 E6        29.63R
PETERSBURG*    CLOUDY    55  55 100 NE9       29.62R
HANOVER        CLOUDY    52  50  93 MISG      29.64S FOG
TAPPAHANNOCK*  CLOUDY    51  51  99 NE7       29.64S
QUINTON*       CLOUDY    51  50  97 NE8G16    29.62R FOG
CHARLOTTSVILLE CLOUDY    52  49  89 NE9       29.63R FOG
GORDONSVILLE*  CLOUDY    50  50  99 NE9       29.64R FOG
ORANGE*        CLOUDY    50  50 100 NE6       29.66R
LOUISA*        CLOUDY    54  54 100 NE8       29.62S FOG
BUMPASS*       CLOUDY    50  50  98 NE5       29.64R
FARMVILLE*     CLOUDY    55  55  99 NE8       29.60R
CREWE*         CLOUDY    54  54 100 NE3       29.60S
FORT PICKETT*  NOT AVBL
CHASE CITY*    CLOUDY    55  53  94 CALM      29.59R
CLARKSVILLE*   CLOUDY    55  55 100 E6        29.58R
SOUTH HILL*    CLOUDY    54  53  94 NE3       29.65R
LAWRENCEVILLE* CLOUDY    55  54  97 CALM      29.59S
EMPORIA*       CLOUDY    54  52  94 CALM      29.61S
$$

VAZ088>098-051300-
SOUTHEAST VIRGINIA

CITY           SKY/WX    TMP DP  RH WIND       PRES   REMARKS
NORFOLK        CLOUDY    52  48  86 NE15G25   29.60R
VIRGINIA BEACH CLOUDY    54  48  82 NE15      29.60R
NORFOLK NAVAL  CLOUDY    53  50  89 NE13      29.63R FOG
WEST POINT*    CLOUDY    52  50  95 NE7       29.64R
SALUDA*        CLOUDY    51  50  93 E8        29.64R
NEWPORT NEWS   CLOUDY    53  51  93 NE10      29.61R
LANGLEY AFB    CLOUDY    53  51  94 NE10      29.61R
FORT EUSTIS    CLOUDY    53  53  99 NE8       29.60R FOG
WILLIAMSBURG*  CLOUDY    54  54 100 NE6       29.63R
HR EXEC AP*    CLOUDY    54  50  87 NE12      29.63R
FRANKLIN*      CLOUDY    54  52  93 NE9       29.61R
US460-WAKEFLD  CLOUDY    53  52  96 NE5       29.61R FOG
$$

VAZ020-022-025-037-045-051300-
WEST CENTRAL AND SOUTHWEST VIRGINIA

CITY           SKY/WX    TMP DP  RH WIND       PRES   REMARKS
STAUNTON*      CLOUDY    53  53 100 NE5       29.64S
WAYNESBORO*    CLOUDY    50  49  96 NW3       29.62S
HOT SPRINGS VA CLOUDY    42  42 100 N7        29.61S
LYNCHBURG      RAIN      52  51  97 NE3       29.63R
DANVILLE       CLOUDY    52  50  93 W6        29.61R
SOUTH BOSTON*  CLOUDY    56  55  95 N5        29.59S
MARTINSVILLE   HVY RAIN  47  46  97 CALM      29.66R
ROANOKE        RAIN      50  48  93 W3        29.65R FOG
BLACKSBURG     LGT RAIN  46  43  88 W5        29.67R
DUBLIN*        DRIZZLE   47  42  84 W9        29.67R
MARION*        CLOUDY    43  37  77 SW9       29.71R
HILLSVILLE*    DRIZZLE   42  40  94 NW13G18   29.64R
RICHLANDS*     PTSUNNY   39  30  69 NW3       29.71R
WISE*          FAIR      41  37  87 N3        29.73R
ABINGDON*      CLOUDY    45  39  81 N6        29.72R
$$

MDZ021>025-VAZ099-100-051300-
SOUTHERN MARYLAND AND THE DELMARVA PENINSULA

CITY           SKY/WX    TMP DP  RH WIND       PRES   REMARKS
PATUXENT RIVER CLOUDY    50  47  89 NE10      29.65R
BAY BRIDGE APT NOT AVBL
LEONARDTOWN    CLOUDY    50  46  87 NE5       29.66R
DOVER          CLOUDY    49  49 100 NE12      29.66S
GEORGETOWN     CLOUDY    49  46  90 NE9       29.65S
EASTON         CLOUDY   N/A N/A N/A NE8       29.69F
CAMBRIDGE      CLOUDY    48  45  87 NE8       29.65R
SALISBURY      CLOUDY    49  46  90 NE13      29.65R
OCEAN CITY     CLOUDY    49  46  90 NE14G24   29.65R
WALLOPS ISLAND CLOUDY    50  47  89 NE18      29.63S
ACCOMACK*      CLOUDY   N/A N/A N/A NE8       29.63R
$$

NCZ012>017-030>032-051300-
NORTH CENTRAL AND EASTERN NORTH CAROLINA

CITY           SKY/WX    TMP DP  RH WIND       PRES   REMARKS
ROANOKE RAPIDS CLOUDY    54  52  94 NE7       29.58S
RALEIGH        CLOUDY    58  56  93 NW5       29.56R FOG
ELIZABETH CITY CLOUDY    52  52 100 NE17      29.59R FOG
AHOSKIE*       CLOUDY    54  52  93 NE6       29.59S
EDENTON*       CLOUDY    55  55 100 NE9       29.58F FOG
CURRITUCK*     NOT AVBL
KILL DEVIL HLS CLOUDY    52  52 100 NE9       29.56R FOG
MANTEO         CLOUDY    53  53 100 NE16      29.57R FOG
CAPE HATTERAS  CLOUDY    57  55  93 NE13G20   29.52F
TARBORO*       CLOUDY    55  54  94 NE6       29.59R
GOLDSBORO      CLOUDY    61  61 100 E10       29.53S
WASHINGTON     CLOUDY    57  55  91 NE8       29.56S
GREENVILLE     CLOUDY    55  55 100 NE6       29.61R
NEW BERN       CLOUDY    60  55  83 NE12      29.56R
WILMINGTON     CLOUDY    63  61  93 NE5       29.53S FOG
$$

VAZ048-051300-
ELSEWHERE

CITY           SKY/WX    TMP DP  RH WIND       PRES   REMARKS
HARRISBURG PA  CLOUDY    50  45  83 NE6       29.69R
BALTIMORE      DRZL/FOG  50  48  93 NE7       29.66F VSB 1
ANNAPOLIS      CLOUDY    51  48  89 NE9       29.66S FOG
ANDREWS AFB    CLOUDY    49  48  95 E8        29.66R FOG
PHILADELPHIA   CLOUDY    50  43  77 NE12      29.69S
HENDERSON NC   CLOUDY    56  56 100 NE6       29.58R
GREENSBORO     LGT RAIN  50  48  93 N7        29.59R FOG
ROCKY MOUNT    CLOUDY    56  54  93 NE9       29.57R
$$

VAZ100-051300-
MARINE

STATION/POSITION TIME  TEMP    WIND        PRES    WAVE   SWELL
                       AIR SEA DIR/SP/G            HT/PER HT/PER
                 (UTC) (F)     (DEG/KT/KT) (MB)    (FT/S) (FT/S)
BRANDYWINE LGT   1100   48      40/ 16/ 19 1004.2R
CAPE MAY NJ      1100   48 57   30/  4/  9 1004.0R
LEWES DE         1100   49 55   40/ 15/ 19 1004.1S
15NM E FENWICK I 1150   48 51              1003.2R   7/ 8
OCEAN-CITY-INLET 1100   49 54   40/  5/ 13 1002.9R
WACHAPREAGUE VA  1100   51 59   50/ 23/ 28 1001.9F
THOMAS POINT MD  1200   50 58   50/ 14/ 17 1005.6F
GOOSES REEF MD   1100   51 59   50/ 14/ 17 1005.0R   2/ 3
COVE POINT MD    1100   49      30/ 11/ 14 1004.3R
SOLOMONS ISLAND  1100   51 60   40/  9/ 12   N/A
BISHOPS HEAD MD  1100   50 59   40/ 11/ 17 1002.5R
PINEY POINT MD   1100           60/  9/ 10   N/A
POTOMAC MD       1100   51 60   40/ 14/ 16 1002.4R   1/ 2
CAMBRIDGE MD     1100   50 61   40/ 12/ 15 1003.1R
LEWISETTA VA     1100   51 62   40/  8/ 12 1003.1R
RAPPAHANNOCK LGT 1100           40/ 14/ 15 1003.2R
STINGRAY PT      1100   53 61   60/ 12/ 16 1003.0R   2/ 3
YORK RVR RNG VA  1100   53      60/ 14/ 16 1001.9R
YORKTOWN VA      1100   54 63   50/ 12/ 15 1002.2S
JAMESTOWN VA     1100   53 67   30/  6/  8   N/A     0
DOMINION TERM VA 1100   53      60/ 11/ 18 1002.2R
KIPTOPEKE VA     1100      61   60/ 12/ 17   N/A
CHES BAY BRIDGE  1100   51 61   30/ 20/ 24 1001.4F
CAPE HENRY VA    1100   51      40/ 21/ 24   N/A
CHESAPEAKE LGHT  1100   49      40/ 22/ 26 1002.3F
WILLOUBY STN VA  1100   52      50/ 15/ 19 1003.2R
CAPE HENRY BUOY  1112      56                N/A     5/ 6
CAPE CHARLES BUO 1126      57                N/A     5/ 7   2/15
OFFSHORE WE BUOY 1121      55                N/A     6/ 6   2/15
64NM E OF VA BCH 1150   51 52  360/ 17/ 21 1000.5R   5/ 7
DUCK PIER NC     1100   52 61   20/ 19/ 22 1000.5F
44100 DUCK FRF   1124      57                N/A     5/ 5
44056 DUCK FRF   1111      59                N/A     5/ 5
OREGON INLET NC  1100   54 62   10/ 11/ 15 1000.5R
HATTERAS NC      1100   58 69   30/ 13/ 21  999.7R
DIAMOND SHLS NC  1150   60 71   10/ 17/ 21  998.9F   4/ 7   2/ 9
CAPE LOOKOUT NC  1100   63      40/ 17/ 20  999.0F
$$




USA.gov is the U.S. government's official web portal to all federal, state and local government web resources and services.